Location: Bo?a Wola
(50.4192°N, 19.7966°E)
Time: 21:04:39
(UTC+00:00)

Cosmos 2218 Rocket - Visible Passes

Search period start: 13 September 2024 00:00
Search period end: 23 September 2024 00:00
Orbit: 956 x 1005 km, 82.9° (Epoch: 12 September)

Date Brightness Start Highest point End Pass type
(mag) Time Alt. Az. Time Alt. Az. Time Alt. Az.
13 Sep 3.9 01:18:13 10° NNW 01:24:28 64° W 01:25:21 58° SW visible
13 Sep 5.7 03:06:32 10° NW 03:08:38 12° WNW 03:10:04 11° W visible
13 Sep 4.8 23:59:41 10° N 00:05:43 44° ENE 00:06:45 41° E visible
14 Sep 4.5 01:45:25 10° NNW 01:51:09 38° W 01:51:28 37° W visible
14 Sep 6.2 22:42:20 10° NNE 22:46:04 16° NE 22:48:12 14° ENE visible
15 Sep 4.0 00:26:28 10° N 00:32:48 73° ENE 00:32:56 73° E visible
15 Sep 5.2 02:12:58 10° NNW 02:17:38 22° W 02:17:40 22° W visible
15 Sep 5.6 23:08:26 10° N 23:13:35 26° ENE 23:14:25 25° ENE visible
16 Sep 4.0 00:53:26 10° NNW 00:59:09 65° WNW 00:59:09 65° WNW visible
16 Sep 5.7 02:41:24 10° NW 02:43:53 13° WNW 02:43:53 13° WNW visible
16 Sep 4.9 23:34:57 10° N 23:40:41 41° ENE 23:40:41 41° ENE visible
17 Sep 4.7 01:20:36 10° NNW 01:25:25 38° WNW 01:25:25 38° WNW visible
17 Sep 6.2 22:17:44 10° NNE 22:21:11 15° NE 22:22:15 14° ENE visible
18 Sep 4.4 00:01:42 10° N 00:06:58 59° NNE 00:06:58 59° NNE visible
18 Sep 5.3 01:48:05 10° NNW 01:51:43 22° WNW 01:51:43 22° WNW visible
18 Sep 5.7 22:43:44 10° N 22:48:34 24° ENE 22:48:34 24° ENE visible
19 Sep 4.5 00:28:38 10° NNW 00:33:18 51° NNW 00:33:18 51° NNW visible
19 Sep 5.8 02:16:20 10° NW 02:18:02 13° WNW 02:18:02 13° WNW visible
19 Sep 5.2 23:10:13 10° N 23:14:55 36° NE 23:14:55 36° NE visible
20 Sep 5.0 00:55:47 10° NNW 00:59:39 33° NW 00:59:39 33° NW visible
20 Sep 6.2 21:53:08 10° NNE 21:56:17 14° NE 21:56:33 14° ENE visible
20 Sep 4.9 23:36:56 10° N 23:41:17 44° NNE 23:41:17 44° NNE visible
21 Sep 5.5 01:23:13 10° NNW 01:26:02 21° NW 01:26:02 21° NW visible
21 Sep 5.9 22:19:02 10° N 22:22:57 22° NE 22:22:57 22° NE visible
22 Sep 5.0 00:03:50 10° NNW 00:07:41 40° NNW 00:07:41 40° NNW visible
22 Sep 6.0 01:51:19 10° NW 01:52:26 12° NW 01:52:26 12° NW visible
22 Sep 5.5 22:45:28 10° N 22:49:22 30° NE 22:49:22 30° NE visible
